Tracking 35275 objects as of 8-Sep-2026
HD Live streaming from Space Station
objects crossing your sky now

NOAA 17 DEB

Track NOAA 17 DEB now!
10-day predictions


NORAD ID: 48178
Int'l Code: 2002-032U
Launch date: June 24, 2002
Source: United States (US)
Launch site: AIR FORCE WESTERN TEST RANGE (AFWTR)

Note: This is SATELLITE DEBRIS
Your satellite tracking list
Your tracking list is empty




NASA's NSSDC Master Catalog

Two Line Element Set (TLE):
1 48178U 02032T   26251.29486214  .00005155  00000-0  12150-2 0  9994
2 48178  98.8609 272.5387 0008282  11.8388 348.3000 14.54716936286070
Source of the keplerian elements: AFSPC